{"data":{"norad_id":54144,"epoch":"2026-09-19T21:21:16.492608Z","epoch_age_seconds":74738,"freshness":"FRESH","line1":"1 54144U 22138AH  26262.88977422  .00000051  00000+0  95569-4 0  9992","line2":"2 54144  87.9109 286.1010 0001816  88.5097 271.6244 13.19723786189297","mean_motion":13.19723786,"eccentricity":0.0001816,"inclination_deg":87.9109,"raan_deg":286.101,"arg_perigee_deg":88.5097,"mean_anomaly_deg":271.6244,"bstar":9.5569e-5,"rev_number":18929,"period_min":109.11374147196,"perigee_km":1184.4015841825,"apogee_km":1187.1487970901,"semimajor_km":7563.9121906363,"source":"CELESTRAK","updated_at":"2026-09-20T09:00:44.721682Z"}}